Wind_Speed
68 65 64 64 64 64 63 64 63 63 62 62 61 61 61 59 61 60 59 59 58 59 60 59 59 59 59 57 57 54 50 48 47 43 41 41 42 42 42 39 38 41 43
70 68 67 65 65 66 66 67 65 64 62 61 61 59 59 58 59 55 55 56 56 56 55 54 55 56 55 53 49 47 45 44 43 40 39 41 42 44 41 41 38 38 41
71 71 70 68 67 68 68 67 67 65 63 60 58 57 54 52 53 55 52 50 50 49 50 49 50 52 50 48 44 44 43 41 42 39 36 37 39 40 40 37 35 37 35
71 72 71 68 65 67 66 67 65 62 62 60 58 55 49 48 47 47 46 43 42 44 44 45 44 45 45 43 42 39 40 38 36 35 33 32 30 29 30 28 27 27 27
73 69 71 71 67 64 64 64 63 60 59 56 55 51 51 43 43 41 41 41 37 37 37 37 39 40 38 37 36 36 34 31 30 28 29 24 20 18 23 26 23 25 27
72 71 68 69 68 62 61 59 59 57 56 52 50 46 44 39 39 39 36 36 32 32 32 33 33 31 32 33 35 33 34 29 26 23 22 16 14 8 11 12 16 17 18
70 69 68 69 68 61 56 55 57 56 53 49 44 42 39 38 35 34 34 30 29 29 29 29 25 26 30 33 34 33 31 28 24 20 15 7 3 4 3 11 20 19 20
62 63 63 67 66 65 58 56 56 57 52 47 42 43 39 40 36 34 33 31 29 29 28 27 27 26 31 32 34 33 31 25 19 17 11 9 13 14 7 12 23 22 22
55 54 58 63 63 59 57 55 55 57 52 49 45 42 41 39 36 34 34 33 27 29 28 29 28 30 30 31 32 33 32 23 18 16 15 15 21 26 18 28 26 27 28
55 57 56 55 55 54 51 51 50 53 53 50 45 45 41 40 36 35 34 33 29 30 28 27 28 27 28 29 30 33 31 28 17 16 10 19 28 32 28 30 30 31 27
53 54 55 57 56 54 50 49 47 50 49 48 45 48 45 43 41 40 38 33 29 30 28 26 25 26 27 28 29 32 32 31 20 18 14 23 28 29 30 26 33 34 38
60 57 55 56 58 55 53 48 48 50 51 50 49 49 45 45 45 41 38 34 31 30 28 26 25 27 27 28 30 29 32 31 21 19 19 22 31 27 33 30 31 35 37
63 56 54 55 59 58 53 53 49 49 49 48 51 49 48 48 48 43 37 38 35 30 26 26 26 30 28 27 29 29 32 30 25 19 21 19 33 27 21 37 34 40 39
64 61 59 56 58 62 59 56 50 49 48 49 51 51 49 48 49 43 39 37 35 31 26 28 29 29 29 29 29 29 31 30 27 19 23 24 27 31 29 32 31 40 47
64 65 62 60 60 64 65 61 53 49 46 46 49 49 46 47 45 44 42 39 35 35 28 26 30 29 29 29 28 29 31 33 28 22 25 28 31 37 36 34 35 40 44
73 71 70 61 57 64 68 66 59 52 47 46 45 43 45 47 44 45 44 41 38 37 32 25 29 29 29 29 28 28 29 31 30 28 21 31 33 37 40 33 41 36 48
80 80 73 67 61 58 68 70 64 57 49 50 49 44 44 45 45 47 46 40 36 34 32 31 28 30 28 30 30 29 28 32 32 31 26 29 37 37 43 44 45 44 49
83 79 79 74 65 63 70 68 67 61 53 50 52 51 48 45 46 48 42 37 35 32 32 32 29 29 29 31 31 29 28 32 35 33 29 27 36 39 40 47 47 53 51
82 77 75 77 78 67 68 71 66 64 55 54 52 52 48 43 41 43 41 38 38 35 31 30 32 31 31 31 32 29 28 32 36 36 34 26 34 40 40 44 50 56 55
86 84 81 75 75 68 63 70 69 65 58 56 51 49 46 43 44 44 43 44 41 37 30 32 35 32 31 30 32 31 30 33 35 38 36 31 31 40 42 43 48 54 61
92 92 88 82 80 69 58 63 69 68 62 60 56 49 49 45 45 47 49 48 45 40 39 36 34 32 32 29 34 31 32 34 35 39 39 35 31 39 41 42 44 47 55
98 94 90 85 76 69 58 61 66 71 66 63 58 53 50 46 44 44 47 44 41 40 41 41 41 38 32 30 33 30 35 34 37 41 42 38 32 36 41 41 41 41 45
102 96 94 85 80 67 63 60 61 70 71 65 62 58 55 50 43 44 45 40 36 37 39 37 34 34 35 32 30 36 33 34 38 42 42 42 35 35 40 39 35 33 33
103 97 91 84 73 66 60 61 64 70 73 69 67 60 55 49 46 46 43 37 38 40 40 38 38 32 34 32 31 34 34 36 39 45 45 43 40 34 37 38 35 37 37
102 94 91 85 74 70 68 70 65 67 76 74 69 61 56 50 47 43 37 32 33 30 32 30 30 30 31 35 33 36 37 38 42 42 45 44 42 36 35 38 38 43 46
95 92 88 87 84 79 74 71 61 65 75 75 70 62 59 54 50 47 41 40 38 35 35 41 35 38 37 36 37 38 42 45 44 42 41 44 45 38 36 37 40 42 50
Wind_Direction
275 275 274 276 277 278 279 279 281 282 285 286 286 288 289 291 292 294 295 295 294 294 294 294 292 291 292 291 292 292 292 289 287 285 281 276 273 270 271 272 269 270 269
273 272 273 275 276 278 279 280 280 281 283 286 288 290 292 294 294 296 297 297 296 294 292 290 290 291 292 294 294 294 293 290 287 282 276 271 272 273 274 273 278 275 269
273 274 274 274 277 278 280 281 281 283 285 287 290 292 295 296 297 298 296 295 293 290 290 288 289 290 293 295 296 294 292 289 288 286 280 272 269 270 274 277 275 275 276
274 275 274 275 277 279 280 281 282 283 286 288 290 294 295 297 296 296 293 291 290 289 289 290 293 297 298 300 299 296 296 295 292 288 281 279 276 271 273 277 281 279 279
271 274 276 276 276 279 281 281 282 283 286 288 290 292 293 295 293 290 287 288 287 288 290 292 294 300 305 308 307 306 305 299 296 294 287 282 281 277 268 271 275 279 281
269 270 272 273 273 273 276 278 280 283 283 285 289 290 291 292 286 281 280 283 287 291 292 292 296 308 318 321 321 320 314 307 296 293 282 281 285 285 280 296 290 286 292
271 269 269 269 271 270 273 274 276 282 283 283 285 289 292 290 279 273 273 279 285 291 292 293 300 315 323 329 327 329 326 316 300 291 267 264 254 154 295 287 287 286 284
272 269 266 266 268 268 268 269 272 276 277 279 282 286 288 289 282 264 274 271 280 284 290 290 301 314 325 335 335 333 335 317 309 294 245 213 181 171 186 271 275 267 270
273 271 271 270 269 266 266 266 269 272 273 275 278 281 284 285 283 275 268 270 276 282 286 287 293 305 320 334 338 337 337 325 304 293 245 201 187 167 189 241 249 244 264
277 277 274 272 268 267 266 266 268 270 272 273 274 276 279 282 279 277 276 269 270 280 281 289 297 302 321 330 336 337 336 338 291 275 245 210 198 189 196 220 234 246 242
273 275 276 277 276 273 270 269 268 270 267 272 270 272 276 278 282 277 275 267 273 279 276 287 293 302 315 327 334 336 338 342 301 263 248 212 198 201 216 224 242 242 247
274 273 273 275 276 276 274 269 266 265 263 267 266 271 275 278 280 275 270 273 265 275 274 283 290 298 309 322 330 336 336 339 322 260 252 216 207 210 215 224 240 245 247
270 266 272 272 272 274 271 273 268 269 268 264 265 270 275 276 277 272 264 276 261 271 275 282 289 295 302 315 324 329 334 339 333 271 244 236 215 219 218 223 244 233 245
265 267 266 269 267 268 266 267 266 267 266 266 269 271 273 273 275 266 266 277 263 265 272 285 287 289 296 307 318 325 329 335 330 291 241 232 219 215 213 223 241 250 249
272 275 272 264 264 264 264 261 262 265 263 266 265 268 267 270 271 271 268 276 267 259 268 284 283 283 290 300 311 317 322 329 331 312 253 231 221 220 218 223 238 249 247
271 276 277 268 258 262 263 261 259 259 262 261 261 263 263 265 268 270 273 274 266 257 265 276 281 280 285 295 305 311 318 326 328 323 281 237 228 222 220 221 227 243 248
268 271 271 269 270 264 260 259 258 256 257 263 265 264 262 258 263 269 273 269 260 258 266 266 273 274 280 289 299 304 312 322 323 327 307 252 231 228 223 223 226 232 248
266 267 266 266 266 266 260 256 255 255 254 257 264 266 263 257 260 265 266 265 254 262 262 263 265 265 273 282 293 295 308 318 321 325 320 272 238 233 231 229 231 232 241
259 261 263 264 264 262 258 252 249 250 251 253 259 259 260 257 256 260 264 266 255 254 263 261 258 262 268 278 288 288 304 311 319 322 321 288 248 236 237 236 233 233 238
258 257 259 261 262 262 257 253 247 246 247 249 249 252 257 254 255 257 260 264 256 250 262 269 261 264 268 274 286 288 300 305 314 323 319 306 258 241 241 240 240 238 237
255 255 255 255 259 261 252 251 246 243 242 246 248 248 255 255 255 257 259 260 257 254 261 265 273 271 268 273 285 284 296 301 310 318 321 312 277 247 246 247 248 247 242
251 252 254 254 254 257 251 248 246 241 239 242 245 245 245 248 252 258 261 264 259 255 260 262 268 267 265 271 281 284 295 296 307 316 320 315 289 257 247 252 256 254 245
252 253 253 253 254 252 248 249 248 242 237 237 240 240 240 246 250 257 262 259 253 255 262 265 263 265 267 272 274 286 289 295 305 313 319 314 301 268 250 255 260 247 242
251 252 253 252 249 246 246 250 247 241 238 234 237 238 240 241 245 252 259 259 258 262 260 261 261 265 264 273 281 284 283 292 303 309 315 314 306 278 255 256 259 233 230
250 254 251 252 250 250 250 246 244 238 237 232 234 236 237 237 241 247 255 251 256 261 259 259 261 269 266 276 283 285 282 292 301 307 311 314 306 284 262 260 262 228 224
248 250 250 250 249 248 248 245 239 236 235 230 233 235 237 236 235 238 242 242 241 248 255 258 261 267 269 271 274 281 287 286 294 305 306 310 308 289 265 265 265 236 229
Height
10851 10852 10853 10852 10851 10851 10851 10850 10851 10849 10847 10846 10845 10844 10842 10841 10838 10836 10834 10832 10829 10826 10822 10818 10815 10812 10810 10807 10805 10801 10797 10795 10793 10792 10791 10790 10786 10785 10786 10788 10788 10789 10789
10837 10839 10840 10842 10841 10841 10841 10840 10841 10841 10840 10837 10836 10836 10834 10832 10830 10828 10825 10822 10819 10815 10813 10810 10806 10803 10801 10798 10796 10793 10789 10786 10784 10783 10783 10782 10780 10778 10780 10780 10781 10782 10782
10826 10827 10830 10833 10832 10830 10831 10831 10831 10831 10830 10829 10828 10827 10826 10823 10820 10820 10817 10814 10810 10806 10804 10801 10799 10795 10794 10792 10790 10786 10782 10778 10774 10774 10775 10774 10773 10773 10773 10775 10777 10776 10775
10817 10817 10817 10821 10824 10820 10821 10821 10821 10821 10822 10821 10820 10818 10818 10815 10812 10811 10808 10806 10804 10800 10798 10795 10792 10788 10786 10785 10781 10777 10775 10771 10768 10767 10766 10767 10768 10768 10769 10771 10771 10770 10769
10808 10807 10805 10808 10814 10812 10811 10811 10811 10812 10813 10812 10812 10811 10810 10809 10806 10805 10802 10799 10798 10795 10792 10790 10786 10782 10780 10777 10774 10770 10767 10764 10762 10761 10761 10762 10762 10765 10766 10769 10766 10765 10765
10797 10797 10795 10794 10800 10803 10802 10801 10802 10803 10804 10805 10803 10803 10803 10803 10800 10799 10797 10795 10793 10790 10787 10784 10781 10777 10773 10770 10767 10762 10759 10758 10756 10756 10756 10757 10759 10761 10763 10764 10764 10763 10762
10785 10785 10784 10782 10786 10791 10793 10794 10793 10794 10794 10796 10796 10796 10795 10796 10794 10793 10791 10790 10788 10785 10783 10779 10776 10773 10768 10765 10761 10758 10754 10751 10751 10751 10751 10755 10758 10761 10762 10764 10764 10761 10759
10772 10772 10771 10771 10773 10777 10782 10784 10785 10784 10785 10786 10787 10788 10788 10788 10788 10787 10786 10785 10783 10780 10777 10774 10771 10768 10765 10761 10757 10753 10749 10747 10747 10746 10748 10751 10755 10756 10759 10761 10760 10757 10754
10759 10760 10760 10759 10763 10766 10769 10772 10774 10774 10775 10777 10778 10779 10780 10780 10780 10779 10780 10780 10778 10775 10772 10769 10766 10763 10760 10757 10754 10750 10745 10743 10743 10743 10745 10747 10750 10751 10754 10756 10750 10748 10749
10746 10747 10748 10748 10750 10754 10757 10760 10763 10764 10765 10767 10769 10769 10771 10772 10772 10772 10772 10773 10772 10769 10766 10763 10761 10758 10755 10754 10750 10747 10742 10739 10738 10737 10740 10742 10745 10745 10743 10746 10743 10743 10745
10736 10736 10736 10737 10741 10742 10746 10749 10753 10754 10756 10758 10759 10760 10761 10763 10764 10764 10763 10764 10765 10763 10760 10758 10756 10753 10751 10749 10746 10743 10739 10736 10733 10732 10734 10737 10740 10741 10741 10740 10738 10739 10741
10725 10727 10729 10728 10726 10732 10734 10737 10741 10743 10746 10749 10750 10751 10752 10753 10754 10755 10755 10756 10757 10757 10755 10753 10751 10748 10746 10744 10742 10738 10735 10732 10728 10727 10729 10733 10734 10735 10738 10739 10737 10735 10737
10716 10717 10718 10719 10715 10718 10723 10725 10728 10732 10735 10738 10740 10742 10743 10744 10745 10745 10746 10748 10749 10750 10749 10747 10745 10743 10740 10739 10737 10734 10730 10727 10724 10722 10724 10727 10730 10731 10731 10735 10733 10732 10732
10703 10705 10709 10708 10706 10703 10709 10711 10716 10721 10725 10728 10730 10732 10734 10735 10735 10735 10737 10739 10741 10742 10742 10741 10739 10737 10735 10733 10731 10729 10726 10722 10720 10717 10717 10719 10723 10726 10726 10730 10728 10727 10727
10687 10689 10695 10697 10694 10691 10692 10698 10705 10709 10714 10718 10719 10722 10724 10724 10725 10726 10728 10730 10732 10734 10735 10735 10732 10731 10729 10727 10725 10722 10720 10717 10714 10711 10711 10712 10715 10718 10720 10722 10723 10719 10720
10669 10672 10676 10682 10685 10681 10680 10685 10694 10699 10704 10708 10710 10712 10714 10715 10715 10716 10719 10721 10723 10725 10726 10727 10725 10724 10723 10721 10718 10716 10714 10711 10708 10706 10703 10705 10707 10709 10712 10714 10715 10712 10710
10652 10650 10660 10667 10674 10671 10666 10671 10680 10688 10694 10697 10701 10702 10704 10705 10707 10707 10709 10711 10713 10716 10717 10718 10718 10717 10716 10715 10712 10710 10707 10705 10702 10699 10697 10696 10698 10701 10703 10704 10704 10705 10702
10633 10636 10637 10649 10657 10662 10654 10656 10667 10675 10683 10686 10689 10692 10694 10695 10697 10697 10698 10701 10703 10707 10708 10709 10709 10709 10708 10707 10706 10703 10700 10697 10695 10693 10690 10688 10689 10691 10693 10695 10696 10697 10696
10613 10616 10622 10631 10638 10646 10643 10643 10653 10661 10669 10673 10677 10681 10683 10685 10686 10688 10690 10692 10694 10697 10699 10700 10700 10700 10700 10699 10698 10696 10693 10690 10687 10685 10683 10681 10680 10681 10682 10684 10685 10688 10690
10593 10601 10607 10616 10621 10628 10634 10631 10639 10648 10654 10659 10663 10669 10674 10676 10677 10679 10681 10683 10685 10688 10691 10692 10692 10692 10692 10692 10690 10688 10686 10683 10680 10677 10675 10672 10670 10670 10671 10673 10675 10677 10678
10572 10578 10588 10599 10606 10611 10621 10618 10625 10635 10641 10646 10652 10658 10663 10665 10666 10670 10671 10672 10675 10680 10682 10683 10684 10685 10683 10683 10682 10681 10677 10675 10672 10669 10666 10664 10661 10661 10660 10662 10664 10665 10666
10546 10557 10566 10581 10589 10597 10605 10604 10610 10618 10628 10633 10641 10647 10650 10653 10656 10661 10662 10664 10667 10670 10671 10674 10675 10675 10674 10675 10674 10672 10669 10666 10664 10661 10658 10655 10652 10651 10651 10652 10653 10653 10654
10521 10534 10545 10562 10573 10582 10588 10589 10598 10606 10614 10621 10625 10631 10637 10644 10649 10652 10654 10654 10658 10661 10664 10666 10666 10666 10665 10665 10665 10664 10660 10657 10655 10653 10650 10645 10643 10641 10642 10643 10643 10644 10645
10500 10513 10525 10541 10554 10564 10568 10572 10579 10589 10596 10604 10609 10619 10629 10634 10639 10642 10645 10647 10649 10651 10654 10656 10657 10656 10656 10656 10655 10655 10653 10650 10647 10642 10641 10638 10633 10631 10632 10634 10635 10636 10637
10479 10491 10504 10518 10534 10540 10545 10551 10561 10571 10579 10586 10596 10607 10616 10623 10626 10631 10636 10639 10641 10643 10645 10647 10647 10647 10646 10646 10646 10646 10644 10641 10638 10635 10630 10629 10625 10622 10622 10623 10625 10627 10628
10455 10466 10481 10497 10509 10519 10526 10535 10546 10555 10561 10573 10583 10594 10603 10613 10618 10620 10625 10627 10630 10630 10632 10635 10636 10635 10636 10636 10635 10635 10635 10633 10630 10628 10623 10618 10615 10613 10612 10613 10613 10615 10619